User: anonymous   Login
Location: D�derode
(51.8092°N, 10.1065°E)
Time: 01:15:04
(UTC+00:00)
Language:

USA 215 - Orbit

View from above orbital plane
View from above orbital plane
View from above satellite
View from above satellite

Ground track
Ground track

The orbit data is extracted from the following two-line orbital elements,

1 37162U 10046A   21045.20981122 0.00000000  00000-0  00000-0 0    00
2 37162 122.9990   7.7500 0001169 118.2676 241.7323 13.41430816    03
Epoch (UTC): 14 February 2021 05:02:07
Eccentricity: 0.0001169
inclination: 122.9990°
perigee height: 1103 km
apogee height: 1105 km
right ascension of ascending node: 7.7500°
argument of perigee: 118.2676°
revolutions per day: 13.41430816
mean anomaly at epoch: 241.7323°
orbit number at epoch: 0

The dashed part of the orbit path shows where the satellite is in the earth's shadow,  

DLR